AI4Y Weather Reports


Display with metric or nautical units.
time (UTC)temp
F
wind
direction
speed
MPH
gust
MPH
rain 1hr
in
rain 24hr
in
rain mn
in
humidity
%
barometer
mb
20260510125016 65 143 1.0 4.0 0.00 0.00 0.00 70 1015.8
20260510124017 64 158 1.0 3.0 0.00 0.00 0.00 75 1015.7
20260510123016 62 153 1.0 3.0 0.00 0.00 0.00 77 1015.6
20260510122019 58 204 0.0 3.0 0.00 0.00 0.00 81 1015.5
20260510121017 56 295 1.0 3.0 0.00 0.00 0.00 86 1015.4
20260510120017 53 304 2.0 3.0 0.00 0.00 0.00 91 1015.1
20260510114018 49 296 2.0 3.0 0.00 0.00 0.00 98 1015.0
20260510113018 47 302 1.0 2.0 0.00 0.00 0.00 99 1014.9
20260510112018 47 312 2.0 3.0 0.00 0.00 0.00 100 1014.8
20260510111018 47 310 2.0 3.0 0.00 0.00 0.00 99 1014.6
20260510110018 46 280 0.0 2.0 0.00 0.00 0.00 99 1014.6
20260510105018 45 282 1.0 2.0 0.00 0.00 0.00 99 1014.6
20260510104016 44 299 1.0 2.0 0.00 0.00 0.00 99 1014.5
20260510103056 45 306 2.0 3.0 0.00 0.00 0.00 99 1014.5
20260510102016 45 295 1.0 2.0 0.00 0.00 0.00 99 1014.4
20260510101017 45 269 1.0 1.0 0.00 0.00 0.00 99 1014.2
20260510100036 45 0.0 0.0 0.00 0.00 0.00 100 1014.2
20260510095016 45 178 0.0 1.0 0.00 0.00 0.00 100 1014.1
20260510094017 46 296 1.0 2.0 0.00 0.00 0.00 100 1013.9
20260510093016 46 288 0.0 1.0 0.00 0.00 0.00 100 1013.9
20260510092017 46 302 1.0 2.0 0.00 0.00 0.00 100 1013.9
20260510091017 46 161 1.0 2.0 0.00 0.00 0.00 99 1013.8
20260510090137 46 304 1.0 2.0 0.00 0.00 0.00 99 1013.6
20260510085017 47 301 0.0 2.0 0.00 0.00 0.00 99 1013.4
20260510084021 47 159 1.0 3.0 0.00 0.00 0.00 99 1013.3
20260510083037 47 305 1.0 3.0 0.00 0.00 0.00 99 1013.4
20260510082038 47 229 0.0 1.0 0.00 0.00 0.00 99 1013.4
20260510081058 47 257 1.0 3.0 0.00 0.00 0.00 99 1013.2
20260510080015 47 58 0.0 4.0 0.00 0.00 0.00 98 1013.1
20260510075038 48 307 1.0 4.0 0.00 0.00 0.00 98 1013.0
20260510074016 48 310 2.0 4.0 0.00 0.00 0.00 97 1013.0
20260510073016 49 309 1.0 3.0 0.00 0.00 0.00 97 1013.0
20260510072015 49 278 1.0 2.0 0.00 0.00 0.00 97 1013.0
20260510071016 49 252 0.0 1.0 0.00 0.00 0.00 97 1013.0
20260510070015 49 144 0.0 1.0 0.00 0.00 0.00 96 1013.0
20260510065019 50 301 1.0 2.0 0.00 0.00 0.00 95 1013.0
20260510064016 50 296 1.0 2.0 0.00 0.00 0.00 94 1013.0
20260510063016 51 300 2.0 3.0 0.00 0.00 0.00 93 1013.0
20260510062017 51 288 1.0 2.0 0.00 0.00 0.00 94 1013.1
20260510061017 51 153 0.0 2.0 0.00 0.00 0.00 94 1013.2
20260510060037 51 178 0.0 2.0 0.00 0.00 0.00 92 1013.2
20260510055016 52 249 0.0 1.0 0.00 0.00 0.00 92 1013.1
20260510054037 51 301 1.0 2.0 0.00 0.00 0.00 93 1013.1
20260510053037 51 292 2.0 2.0 0.00 0.00 0.00 95 1013.0
20260510052017 51 301 2.0 3.0 0.00 0.00 0.00 94 1013.1
20260510051017 51 295 2.0 3.0 0.00 0.00 0.00 94 1013.1
20260510050018 51 300 2.0 2.0 0.00 0.00 0.00 94 1013.0
20260510045017 52 278 0.0 1.0 0.00 0.00 0.00 93 1013.2
20260510044018 52 295 2.0 3.0 0.00 0.00 0.00 91 1013.2
20260510043016 52 291 1.0 2.0 0.00 0.00 0.00 90 1013.1
20260510042016 53 295 1.0 2.0 0.00 0.00 0.00 89 1013.1
20260510041016 53 300 0.0 2.0 0.00 0.00 0.00 88 1013.1
20260510040015 53 276 0.0 2.0 0.00 0.00 0.00 88 1013.1
20260510035017 54 291 1.0 1.0 0.00 0.00 0.00 87 1013.1
20260510034016 54 307 1.0 3.0 0.00 0.00 0.00 85 1013.0
20260510033015 55 311 1.0 2.0 0.00 0.00 0.00 82 1012.9
20260510032016 55 126 1.0 2.0 0.00 0.00 0.00 82 1012.8
20260510031016 56 196 0.0 1.0 0.00 0.00 0.00 80 1012.8
20260510030016 56 274 1.0 1.0 0.00 0.00 0.00 79 1012.7
20260510025016 57 209 0.0 0.0 0.00 0.00 0.00 79 1012.7
20260510024017 57 213 0.0 1.0 0.00 0.00 0.00 77 1012.6
20260510023016 59 274 0.0 1.0 0.00 0.00 0.00 75 1012.5
20260510022017 60 286 1.0 2.0 0.00 0.00 0.00 71 1012.4
20260510021017 60 266 0.0 1.0 0.00 0.00 0.00 69 1012.3
20260510020017 60 112 0.0 2.0 0.00 0.00 0.00 70 1012.1
20260510015017 61 102 2.0 3.0 0.00 0.00 0.00 72 1011.8
20260510014038 61 123 2.0 3.0 0.00 0.00 0.00 69 1011.5
20260510013017 61 165 0.0 1.0 0.00 0.00 0.00 69 1011.4
20260510012038 62 289 0.0 2.0 0.00 0.00 0.00 65 1011.2
20260510011018 63 299 1.0 2.0 0.00 0.00 0.00 62 1011.1
20260510010017 64 253 0.0 1.0 0.00 0.00 0.00 59 1010.8
20260510005018 66 0.0 0.0 0.00 0.00 0.00 57 1010.8
20260510004018 67 0.0 0.0 0.00 0.00 0.00 54 1010.8
20260510003018 69 279 0.0 2.0 0.00 0.00 0.00 52 1010.7
20260510002015 70 290 1.0 2.0 0.00 0.00 0.00 52 1010.7
20260510001015 72 91 0.0 3.0 0.00 0.00 0.00 50 1010.5
20260510000016 73 311 1.0 3.0 0.00 0.00 0.00 49 1010.5
20260509235016 73 250 0.0 2.0 0.00 0.00 0.00 47 1010.3
20260509234016 74 301 2.0 4.0 0.00 0.00 0.00 47 1010.0
20260509233056 75 301 2.0 4.0 0.00 0.00 0.00 45 1010.0
20260509232037 77 298 3.0 7.0 0.00 0.00 0.00 43 1009.7
20260509231017 77 281 3.0 5.0 0.00 0.00 0.00 42 1009.6
20260509230017 77 304 3.0 6.0 0.00 0.00 0.00 42 1009.4
20260509225037 78 301 4.0 7.0 0.00 0.00 0.00 41 1009.4
20260509224017 79 287 3.0 6.0 0.00 0.00 0.00 41 1009.6
20260509223017 78 286 3.0 7.0 0.00 0.00 0.00 41 1009.6
20260509222017 79 305 4.0 8.0 0.00 0.00 0.00 40 1009.5
20260509221017 80 274 3.0 8.0 0.00 0.00 0.00 40 1009.5
20260509220017 80 277 3.0 9.0 0.00 0.00 0.00 40 1009.3
20260509215018 80 262 2.0 5.0 0.00 0.00 0.00 44 1009.3
20260509214018 81 295 3.0 6.0 0.00 0.00 0.00 44 1009.3
20260509213058 80 260 1.0 4.0 0.00 0.00 0.00 46 1009.2
20260509212021 79 248 1.0 4.0 0.00 0.00 0.00 47 1009.3
20260509211015 79 278 2.0 6.0 0.00 0.00 0.00 47 1009.2
20260509210035 80 261 3.0 6.0 0.00 0.00 0.00 47 1009.2
20260509205016 80 251 2.0 5.0 0.00 0.00 0.00 46 1009.2
20260509204016 80 260 2.0 6.0 0.00 0.00 0.00 45 1009.1
20260509203016 81 234 2.0 6.0 0.00 0.00 0.00 46 1009.2
20260509202016 80 178 2.0 5.0 0.00 0.00 0.00 46 1009.1
20260509201016 77 269 2.0 7.0 0.00 0.00 0.00 48 1009.0
20260509200016 77 275 1.0 3.0 0.00 0.00 0.00 48 1009.3
20260509195017 77 285 3.0 6.0 0.00 0.00 0.00 47 1009.2
20260509194017 77 214 2.0 4.0 0.00 0.00 0.00 50 1009.2
20260509193017 79 204 3.0 6.0 0.00 0.00 0.00 47 1009.2
20260509192017 78 209 3.0 7.0 0.00 0.00 0.00 50 1009.2
20260509191017 79 202 3.0 6.0 0.00 0.00 0.00 49 1009.4
20260509190017 79 196 3.0 7.0 0.00 0.00 0.00 48 1009.5
20260509185018 78 232 3.0 7.0 0.00 0.00 0.00 50 1009.6
20260509184018 78 222 3.0 7.0 0.00 0.00 0.00 50 1009.6
20260509183037 77 196 3.0 7.0 0.00 0.00 0.00 51 1009.8
20260509182038 76 191 3.0 6.0 0.00 0.00 0.00 54 1009.8
20260509181038 75 238 2.0 4.0 0.00 0.00 0.00 53 1010.2
20260509180018 76 218 3.0 8.0 0.00 0.00 0.00 54 1010.2
20260509175038 74 206 3.0 5.0 0.00 0.00 0.00 55 1010.3
20260509174015 74 223 2.0 5.0 0.00 0.00 0.00 56 1010.3
20260509173016 73 211 2.0 6.0 0.00 0.00 0.00 57 1010.4
20260509172016 75 201 3.0 5.0 0.00 0.00 0.00 53 1010.6
20260509171016 75 212 2.0 5.0 0.00 0.00 0.00 54 1010.7
20260509170016 76 212 3.0 7.0 0.00 0.00 0.00 54 1010.8
20260509165016 74 204 3.0 7.0 0.00 0.00 0.00 55 1010.8
20260509164016 73 207 3.0 5.0 0.00 0.00 0.00 58 1010.9
20260509163017 74 210 3.0 6.0 0.00 0.00 0.00 56 1011.1
20260509162017 73 185 3.0 5.0 0.00 0.00 0.00 58 1011.0
20260509161017 73 213 3.0 5.0 0.00 0.00 0.00 59 1011.0
20260509160037 71 209 2.0 5.0 0.00 0.00 0.00 63 1011.0
20260509155017 72 180 3.0 6.0 0.00 0.00 0.00 60 1011.2
20260509154017 71 244 2.0 5.0 0.00 0.00 0.00 61 1011.4
20260509153017 71 211 3.0 7.0 0.00 0.00 0.00 62 1011.6
20260509152017 72 212 3.0 6.0 0.00 0.00 0.00 62 1011.4
20260509151038 72 229 2.0 5.0 0.00 0.00 0.00 60 1011.4
20260509150058 71 224 3.0 5.0 0.00 0.00 0.00 61 1011.3
20260509145018 71 215 3.0 7.0 0.00 0.00 0.00 61 1011.3
20260509144058 70 235 2.0 6.0 0.00 0.00 0.00 62 1011.6
20260509143018 68 234 2.0 6.0 0.00 0.00 0.00 65 1011.9
20260509142018 67 253 2.0 5.0 0.00 0.00 0.00 67 1011.9
20260509141021 65 232 1.0 4.0 0.00 0.00 0.00 70 1011.8
20260509140018 63 225 1.0 4.0 0.00 0.00 0.00 71 1011.8
20260509135015 62 153 2.0 6.0 0.00 0.00 0.00 75 1011.7
20260509134016 61 199 1.0 3.0 0.00 0.00 0.00 75 1011.9
20260509133016 60 142 1.0 4.0 0.00 0.00 0.00 75 1012.2
20260509132016 59 282 1.0 2.0 0.00 0.00 0.00 76 1012.5
20260509131036 58 256 1.0 3.0 0.00 0.00 0.00 79 1012.7
20260509130016 57 227 1.0 2.0 0.00 0.00 0.00 79 1012.7